[[[{"header":{"parameterUnit":"kt","parameterCategory":2,"dx":1,"dy":1,"la1":30.253999710083008,"la2":30.299108505249023,"lo1":-89.0895004272461,"lo2":-89.04439544677734,"nx":28,"ny":28,"refTime":"2022-11-01T21:00:00:Z","depth":0,"parameterNumber":1,"parameterNumberName":"U-component_of_WINDS"},"data":[-4.5881,-4.5927,-4.5882,-4.5917,-4.5882,-4.5898,-4.589,-4.5875,-4.5852,-4.5869,-4.5872,-4.5832,-4.5792,-4.5786,-4.5788,-4.577,-4.5777,-4.583,-4.5801,-4.5601,-4.5571,-4.5542,-4.5527,-4.5831,-4.5831,-4.6015,-4.6016,-4.6018,-4.5754,-4.572,-4.5722,-4.5694,-4.5697,-4.5621,-4.5592,-4.5601,-4.5618,-4.5588,-4.5585,-4.5596,-4.5599,-4.5538,-4.5534,-4.5559,-4.5523,-4.5562,-4.5561,-4.5557,-4.5341,-4.5327,-4.5592,-4.5592,-4.5592,-4.5592,-4.5592,-4.5592,-4.5512,-4.554,-4.5494,-4.5494,-4.5467,-4.5449,-4.5468,-4.5415,-4.5417,-4.5402,-4.5345,-4.5363,-4.5324,-4.5292,-4.527,-4.5285,-4.5233,-4.5261,-4.5269,-4.5278,-4.5298,-4.5051,-4.5281,-4.528,-4.5279,-4.5279,-4.5278,0,-4.532,-4.5279,-4.5274,-4.5258,-4.5255,-4.5237,-4.5213,-4.5223,-4.5116,-4.5122,-4.5127,-4.5122,-4.5114,-4.5115,-4.5098,-4.5066,-4.4987,-4.497,-4.499,-4.5021,-4.5055,-4.5044,-4.4701,-4.4964,-4.4961,-4.4959,-4.4957,-4.4956,-4.5076,-4.511,-4.5035,-4.5039,-4.5011,-4.5018,-4.5012,-4.4914,-4.4913,-4.4868,-4.4899,-4.4896,-4.4888,-4.4905,-4.484,-4.4833,-4.4794,-4.4902,-4.4792,-4.4823,-4.4802,-4.4803,-4.4809,-4.4925,-4.4929,-4.4932,-4.4935,0,-4.4945,-4.4861,-4.4898,-4.4817,-4.4798,-4.4841,-4.4773,-4.4795,-4.4737,-4.4762,-4.4761,-4.4671,-4.4677,-4.4592,-4.458,-4.4537,-4.4618,-4.4577,-4.4634,-4.4622,-4.4714,-4.4709,-4.5013,-4.505,-4.473,-4.4733,-4.4735,0,-4.4705,-4.4752,-4.4626,-4.4651,-4.4703,-4.4598,-4.4654,-4.4608,-4.4565,-4.4583,-4.4474,-4.4494,-4.438,-4.4389,-4.4324,-4.4373,-4.4368,-4.434,-4.4323,-4.4351,-4.4356,-4.4351,-4.4338,-4.4274,-4.4272,-4.4271,-4.427,0,-4.451,-4.4493,-4.4532,-4.4515,-4.4429,-4.4452,-4.4418,-4.4366,-4.436,-4.4338,-4.4334,-4.4316,-4.4308,-4.4298,-4.4214,-4.4144,-4.427,-4.4155,-4.4241,-4.4244,-4.4273,-4.4273,-4.4562,-4.4268,-4.4268,-4.4267,-4.4266,0,-4.4301,-4.4277,-4.4344,-4.4271,-4.4271,-4.4296,-4.427,-4.427,-4.4224,-4.4183,-4.4164,-4.408,-4.4109,-4.4004,-4.4046,-4.398,-4.398,-4.3952,-4.3956,-4.3955,-4.384,-4.402,-4.43,-4.4329,-4.3956,-4.3953,-4.3951,0,-4.4106,-4.4147,-4.4054,-4.4119,-4.4126,-4.4002,-4.4029,-4.3988,-4.3934,-4.3935,-4.3875,-4.3875,-4.3777,-4.3765,-4.3797,-4.3736,-4.3823,-4.3721,-4.3733,-4.3734,-4.3754,-4.401,-4.4074,-4.4248,-4.3916,-4.392,-4.3922,0,-4.394,-4.3828,-4.3845,-4.3821,-4.3744,-4.3747,-4.3777,-4.3751,-4.3757,-4.3719,-4.3744,-4.3738,-4.3667,-4.3646,-4.3572,-4.361,-4.3762,-4.3526,-4.3523,-4.3577,-4.3888,-4.3951,-4.3981,-4.3706,-4.371,-4.3713,-4.3895,0,-4.3656,-4.366,-4.3702,-4.3644,-4.3631,-4.3663,-4.3563,-4.3564,-4.3494,-4.3434,-4.3465,-4.3403,-4.3376,-4.3382,-4.3312,-4.3423,-4.3391,-4.3312,-4.3203,-4.337,-4.3428,-4.3451,-4.3126,-4.3122,-4.3119,-4.3116,0,0,-4.3491,-4.3493,-4.3384,-4.3404,-4.3387,-4.3251,-4.3295,-4.3262,-4.3197,-4.319,-4.3128,-4.3111,-4.3062,-4.3111,-4.3154,-4.3141,-4.3154,-4.3096,-4.329,-4.331,-4.3328,-4.3392,-4.3417,-4.311,-4.3109,-4.3108,-4.3107,0,-4.3365,-4.3312,-4.3353,-4.3313,-4.3249,-4.3179,-4.319,-4.3102,-4.3064,-4.3088,-4.2977,-4.2983,-4.2967,-4.2933,-4.2913,-4.3088,-4.3004,-4.3087,-4.3217,-4.3261,-4.3285,-4.3306,-4.3374,-4.3399,-4.3099,-4.3099,-4.31,0,-4.3188,-4.3121,-4.3127,-4.3073,-4.3029,-4.3036,-4.2897,-4.2907,-4.2912,-4.276,-4.2786,-4.2738,-4.268,-4.2734,-4.2754,-4.2698,-4.2875,-4.2797,-4.2815,-4.2815,-4.2853,-4.2882,-4.2908,-4.2568,-4.2566,-4.2565,0,0,-4.3093,-4.3092,-4.2985,-4.3038,-4.3018,-4.2913,-4.2904,-4.2831,-4.2779,-4.2759,-4.2692,-4.2648,-4.2638,-4.2634,-4.2618,-4.2691,-4.2673,-4.2736,-4.2761,-4.2782,-4.2794,-4.2837,-4.2866,-4.2559,-4.2559,-4.2559,0,0,-4.3046,-4.2924,-4.286,-4.2907,-4.2861,-4.2759,-4.2797,-4.2717,-4.2691,-4.2675,-4.2552,-4.2535,-4.2583,-4.2538,-4.2478,-4.2579,-4.2472,-4.2484,-4.2606,-4.2636,-4.266,-4.2671,-4.2326,0,0,0,0,0,-4.2862,-4.2939,-4.2882,-4.2874,-4.2802,-4.2791,-4.2781,-4.268,-4.2609,-4.2642,-4.2575,-4.2481,-4.2482,-4.2426,-4.2421,-4.2488,-4.249,-4.2502,-4.2514,-4.2687,-4.272,-4.2747,0,0,0,0,0,0,-4.2858,-4.2848,-4.288,-4.2783,-4.2765,-4.2787,-4.2644,-4.2619,-4.2603,-4.2585,-4.2498,-4.2479,-4.2393,-4.2421,-4.2418,-4.2485,-4.2326,-4.2495,-4.2505,-4.2515,-4.2698,-4.2725,-4.2748,0,0,0,0,0,-4.2854,-4.2846,-4.2756,-4.2781,-4.2766,-4.265,-4.2641,-4.2618,-4.2604,-4.2496,-4.2474,-4.2529,-4.2398,-4.2388,-4.2419,-4.2489,-4.2327,-4.2327,-4.2501,-4.251,-4.2517,-4.2711,0,0,0,0,0,0,-4.2851,-4.2827,-4.275,-4.2742,-4.2742,-4.2647,-4.2628,-4.2618,-4.2514,-4.2493,-4.2521,-4.2508,-4.2402,-4.2394,-4.2387,-4.2496,-4.2328,-4.2328,-4.2327,-4.2508,-4.2514,-4.252,0,0,0,0,0,0,-4.283,-4.2821,-4.2746,-4.2703,-4.2688,-4.2645,-4.2628,-4.2637,-4.2514,-4.2544,-4.253,-4.2516,-4.2412,-4.2398,-4.2393,-4.2411,-4.2329,-4.2328,-4.2328,-4.2328,-4.2513,-4.2518,0,0,0,0,0,0,-4.2824,-4.2816,-4.2704,-4.2693,-4.2681,-4.2581,-4.2651,-4.2583,-4.2476,-4.2551,-4.2464,-4.2458,-4.2419,-4.2411,-4.2397,-4.2419,-4.2413,-4.2329,-4.2329,-4.2328,-4.2328,0,0,0,0,0,0,0,-4.282,-4.2897,-4.2799,-4.2686,-4.2674,-4.2666,-4.2664,-4.2662,-4.2475,-4.247,-4.2465,-4.2461,-4.2333,-4.2332,-4.2331,-4.2425,0,0,-4.2329,-4.2329,0,0,0,0,0,0,0,0,-4.2898,-4.2898,-4.2799,-4.2797,-4.2795,-4.2666,-4.2664,-4.2662,-4.2474,-4.247,-4.2466,-4.2462,-4.2332,-4.2332,-4.2331,0,0,0,0,0,0,0,0,0,0,0,0,0,0,0,-4.2798,-4.2797,0,-4.2666,-4.2664,-4.2663,-4.2474,-4.247,-4.2467,-4.2464,-4.2332,-4.2332,-4.2331,0,0,0,0,0,0,0,0,0,0,0,0,0,0,0,0,0,0,0,0,0,0,0,0,0,0,0,0,0,0,0,0,0,0,0,0,0,0,0,0,0,0,0,0,0,0,0,0,0,0,0,0,0,0,0,0,0,0,0,0,0,0,0,0,0,0,0,0,0]}],[{"header":{"parameterUnit":"kt","parameterCategory":2,"dx":1,"dy":1,"la1":30.253999710083008,"la2":30.299108505249023,"lo1":-89.0895004272461,"lo2":-89.04439544677734,"nx":28,"ny":28,"refTime":"2022-11-01T21:00:00:Z","depth":0,"parameterNumber":2,"parameterNumberName":"V-component_of_WINDS"},"data":[2.1831,2.1767,2.1783,2.1715,2.1717,2.1671,2.1659,2.1644,2.1635,2.1579,2.1548,2.1552,2.1544,2.1506,2.1469,2.147,2.1451,2.142,2.1425,2.1562,2.1581,2.1599,2.1616,2.1417,2.1417,2.128,2.1278,2.1277,2.1932,2.1935,2.1905,2.1884,2.1857,2.1899,2.1884,2.1856,2.1813,2.18,2.1771,2.172,2.168,2.1681,2.1642,2.1607,2.162,2.1595,2.1594,2.1591,2.174,2.1758,2.1586,2.1586,2.1586,2.1586,2.1586,2.1586,2.212,2.2081,2.2078,2.2045,2.2039,2.2024,2.1987,2.1996,2.1962,2.1928,2.1949,2.1897,2.1884,2.1841,2.1829,2.1785,2.1813,2.1787,2.178,2.1771,2.176,2.1951,2.178,2.178,2.1781,2.1781,2.1781,0,2.226,2.2276,2.2247,2.2223,2.2199,2.218,2.2164,2.2142,2.2173,2.2143,2.21,2.2077,2.2028,2.1984,2.195,2.1941,2.197,2.1976,2.1957,2.1944,2.1938,2.1935,2.2172,2.1979,2.1981,2.1982,2.1983,2.1983,2.2446,2.2399,2.2403,2.2381,2.2376,2.2339,2.2318,2.235,2.2326,2.2308,2.2269,2.2228,2.2196,2.212,2.2121,2.2082,2.2094,2.2019,2.2087,2.2079,2.2086,2.2087,2.208,2.2002,2.2,2.1998,2.1996,0,2.2548,2.2573,2.2505,2.2511,2.2511,2.2459,2.2462,2.2422,2.2433,2.2378,2.2367,2.238,2.2334,2.2349,2.2297,2.2305,2.221,2.2227,2.2216,2.2218,2.2148,2.2153,2.1928,2.1899,2.2112,2.211,2.2108,0,2.2713,2.265,2.2689,2.2648,2.2579,2.2613,2.2542,2.2544,2.2534,2.2491,2.2533,2.2491,2.2517,2.2475,2.2486,2.2412,2.2404,2.2403,2.2405,2.2396,2.2395,2.2375,2.2382,2.2419,2.242,2.2421,2.2422,0,2.2866,2.2814,2.2749,2.274,2.2738,2.2705,2.2701,2.2691,2.2669,2.2642,2.2627,2.2592,2.2571,2.2542,2.2556,2.2602,2.2468,2.2533,2.2466,2.2465,2.2429,2.243,2.2235,2.2423,2.2424,2.2424,2.2425,0,2.3,2.2979,2.2882,2.2881,2.2865,2.2821,2.2791,2.2758,2.2742,2.2749,2.2727,2.2753,2.2694,2.2757,2.2673,2.2728,2.2704,2.2699,2.2694,2.2683,2.2753,2.2634,2.2452,2.243,2.2682,2.2684,2.2686,0,2.3167,2.3076,2.3105,2.301,2.2969,2.302,2.2971,2.2957,2.2962,2.2924,2.2927,2.2882,2.2934,2.292,2.2878,2.2876,2.2804,2.2887,2.2821,2.2818,2.282,2.2655,2.2621,2.2492,2.2714,2.2711,2.2709,0,2.3298,2.3299,2.328,2.327,2.3261,2.3226,2.317,2.3136,2.3109,2.3089,2.3039,2.2978,2.3013,2.299,2.3007,2.2961,2.2854,2.3003,2.3002,2.2971,2.2731,2.2699,2.2678,2.2874,2.2871,2.2868,2.2731,0,2.3488,2.3446,2.3397,2.3375,2.3352,2.3293,2.3313,2.3285,2.3306,2.3311,2.3239,2.3227,2.3185,2.3166,2.3183,2.3077,2.3094,2.3131,2.3188,2.3081,2.3036,2.3018,2.3255,2.3257,2.3258,2.3259,0,0,2.3638,2.3578,2.361,2.3559,2.354,2.3592,2.3528,2.3515,2.3485,2.3469,2.3504,2.3413,2.34,2.3309,2.3278,2.3261,2.3241,2.3277,2.3133,2.3119,2.3106,2.3058,2.3039,2.3262,2.3262,2.3263,2.3263,0,2.3711,2.3708,2.3647,2.3637,2.3623,2.3633,2.3618,2.361,2.361,2.3541,2.3578,2.3536,2.3462,2.3443,2.3423,2.3292,2.3317,2.3278,2.3201,2.3148,2.3132,2.3118,2.3067,2.3049,2.3267,2.3267,2.3267,0,2.384,2.3838,2.3812,2.3776,2.3766,2.3721,2.379,2.374,2.3706,2.3756,2.3686,2.368,2.3655,2.3568,2.353,2.3558,2.3385,2.3442,2.3433,2.3427,2.3375,2.3356,2.3339,2.3564,2.3565,2.3566,0,0,2.3898,2.3861,2.3865,2.3793,2.3784,2.3797,2.3775,2.3793,2.3774,2.3766,2.3758,2.3735,2.3692,2.3662,2.3622,2.3525,2.3519,2.3479,2.3465,2.3453,2.344,2.3386,2.3367,2.3569,2.357,2.357,0,0,2.3924,2.393,2.3955,2.3874,2.3858,2.3854,2.3806,2.3835,2.3802,2.381,2.3831,2.3826,2.3745,2.3736,2.3785,2.3641,2.3699,2.3687,2.3649,2.3632,2.3618,2.3619,2.3846,0,0,0,0,0,2.4008,2.393,2.3954,2.3943,2.3894,2.3842,2.3836,2.3855,2.3897,2.3859,2.3857,2.3888,2.3767,2.3811,2.3797,2.374,2.3618,2.3609,2.3601,2.353,2.3511,2.3496,0,0,0,0,0,0,2.4004,2.3991,2.3956,2.3948,2.3938,2.3845,2.3919,2.3922,2.3901,2.3909,2.3888,2.3887,2.3899,2.382,2.3807,2.3752,2.3851,2.3614,2.3607,2.3601,2.3524,2.3508,2.3495,0,0,0,0,0,2.4001,2.3991,2.3909,2.3949,2.394,2.3948,2.3922,2.3925,2.3909,2.3905,2.3906,2.3926,2.3897,2.3887,2.3812,2.3757,2.386,2.3855,2.361,2.3604,2.3599,2.3516,0,0,0,0,0,0,2.3999,2.3991,2.3907,2.3905,2.3981,2.3954,2.3951,2.3928,2.3907,2.3907,2.3945,2.3951,2.3895,2.3887,2.3879,2.3758,2.3867,2.3862,2.3859,2.3605,2.3601,2.3597,0,0,0,0,0,0,2.3997,2.3989,2.3906,2.3944,2.3947,2.3958,2.3956,2.3893,2.3906,2.3947,2.3952,2.3948,2.3904,2.3887,2.3881,2.3783,2.3873,2.3868,2.3865,2.3863,2.3602,2.3598,0,0,0,0,0,0,2.3994,2.3987,2.3945,2.3947,2.3949,2.3924,2.3903,2.385,2.3945,2.3947,2.3954,2.3958,2.3902,2.3897,2.3882,2.3786,2.3784,2.3873,2.3869,2.3867,2.3866,0,0,0,0,0,0,0,2.3991,2.4034,2.3922,2.3949,2.3951,2.3883,2.3883,2.3882,2.3946,2.3949,2.3953,2.3956,2.39,2.3895,2.389,2.3789,0,0,2.3873,2.3871,0,0,0,0,0,0,0,0,2.4037,2.4035,2.3922,2.3921,2.3921,2.3883,2.3883,2.3882,2.3947,2.3949,2.3952,2.3955,2.3899,2.3895,2.389,0,0,0,0,0,0,0,0,0,0,0,0,0,0,0,2.3921,2.3921,0,2.3883,2.3883,2.3882,2.3947,2.3949,2.3951,2.3954,2.3898,2.3894,2.3891,0,0,0,0,0,0,0,0,0,0,0,0,0,0,0,0,0,0,0,0,0,0,0,0,0,0,0,0,0,0,0,0,0,0,0,0,0,0,0,0,0,0,0,0,0,0,0,0,0,0,0,0,0,0,0,0,0,0,0,0,0,0,0,0,0,0,0,0,0]}]]]